YD6HRD-13 Weather Reports


time (UTC)temp
F
wind
direction
speed
knots
gust
knots
rain 1hr
in
rain 24hr
in
rain mn
in
humidity
%
barometer
mb
20260502233222 81 0.0 0.0 0.00 0.00 0.00 89 1019.4
20260502232722 81 0.0 0.0 0.00 0.00 0.00 89 1019.4
20260502232222 80 0.0 0.0 0.00 0.00 0.00 91 1019.4
20260502231722 81 0.0 0.0 0.00 0.00 0.00 89 1019.3
20260502231222 81 0.0 0.0 0.00 0.00 0.00 90 1019.4
20260502230721 81 0.0 0.0 0.00 0.00 0.00 89 1019.3
20260502230222 81 0.0 0.0 0.00 0.00 0.00 90 1019.3
20260502225722 81 0.0 0.0 0.00 0.00 0.00 88 1019.3
20260502225221 81 0.0 0.0 0.00 0.00 0.00 89 1019.2
20260502224722 81 0.0 0.0 0.00 0.00 0.00 89 1019.1
20260502224222 81 0.0 0.0 0.00 0.00 0.00 89 1019.0
20260502223722 82 0.0 0.0 0.00 0.00 0.00 88 1019.0
20260502223221 81 0.0 0.0 0.00 0.00 0.00 89 1019.0
20260502222722 82 0.0 0.0 0.00 0.00 0.00 88 1018.9
20260502222222 82 0.0 0.0 0.00 0.00 0.00 88 1018.9
20260502221722 82 0.0 0.0 0.00 0.00 0.00 88 1018.7
20260502221222 82 0.0 0.0 0.00 0.00 0.00 88 1018.7
20260502220722 82 0.0 0.0 0.00 0.00 0.00 88 1018.7
20260502220222 82 0.0 0.0 0.00 0.00 0.00 88 1018.7
20260502215721 82 0.0 0.0 0.00 0.00 0.00 88 1018.6
20260502215222 82 0.0 0.0 0.00 0.00 0.00 88 1018.6
20260502214722 82 0.0 0.0 0.00 0.00 0.00 89 1018.6
20260502214221 82 0.0 0.0 0.00 0.00 0.00 88 1018.6
20260502213722 82 0.0 0.0 0.00 0.00 0.00 88 1018.5
20260502213222 82 0.0 0.0 0.00 0.00 0.00 89 1018.4
20260502212721 82 0.0 0.0 0.00 0.00 0.00 88 1018.4
20260502211722 83 0.0 0.0 0.00 0.00 0.00 88 1018.4
20260502211223 83 0.0 0.0 0.00 0.00 0.00 87 1018.4
20260502210722 83 0.0 0.0 0.00 0.00 0.00 88 1018.4
20260502210222 83 0.0 0.0 0.00 0.00 0.00 87 1018.5
20260502205722 83 0.0 0.0 0.00 0.00 0.00 87 1018.5
20260502205221 83 0.0 0.0 0.00 0.00 0.00 87 1018.5
20260502204722 83 0.0 0.0 0.00 0.00 0.00 88 1018.4
20260502204221 83 0.0 0.0 0.00 0.00 0.00 87 1018.5
20260502203722 82 0.0 0.0 0.00 0.00 0.00 90 1018.6
20260502203221 81 0.0 0.0 0.00 0.00 0.00 91 1018.7
20260502202722 81 0.0 0.0 0.00 0.00 0.00 91 1018.8
20260502202222 81 0.0 0.0 0.00 0.00 0.00 91 1018.9
20260502201721 81 0.0 0.0 0.00 0.00 0.00 92 1018.9
20260502201222 81 0.0 0.0 0.00 0.00 0.00 91 1019.0
20260502200722 81 0.0 0.0 0.00 0.00 0.00 91 1019.0
20260502200222 81 0.0 0.0 0.00 0.00 0.00 91 1019.0
20260502195722 81 0.0 0.0 0.00 0.00 0.00 91 1019.0
20260502195222 81 0.0 0.0 0.00 0.00 0.00 91 1019.0
20260502194722 81 0.0 0.0 0.00 0.00 0.00 91 1019.0
20260502194221 81 0.0 0.0 0.00 0.00 0.00 91 1019.2
20260502193722 81 0.0 0.0 0.00 0.00 0.00 91 1019.2
20260502193222 81 0.0 0.0 0.00 0.00 0.00 91 1019.3
20260502192722 81 0.0 0.0 0.00 0.00 0.00 91 1019.3
20260502192221 81 0.0 0.0 0.00 0.00 0.00 91 1019.3
20260502191722 81 0.0 0.0 0.00 0.00 0.00 90 1019.3
20260502191222 81 0.0 0.0 0.00 0.00 0.00 90 1019.3
20260502190721 81 0.0 0.0 0.00 0.00 0.00 90 1019.4
20260502190222 81 0.0 0.0 0.00 0.00 0.00 91 1019.4
20260502185722 82 0.0 0.0 0.00 0.00 0.00 90 1019.4
20260502185222 82 0.0 0.0 0.00 0.00 0.00 89 1019.5
20260502184721 82 0.0 0.0 0.00 0.00 0.00 89 1019.6
20260502184222 82 0.0 0.0 0.00 0.00 0.00 89 1019.6
20260502183722 82 0.0 0.0 0.00 0.00 0.00 88 1019.7
20260502183221 82 0.0 0.0 0.00 0.00 0.00 89 1019.7
20260502182722 82 0.0 0.0 0.00 0.00 0.00 90 1019.7
20260502182221 82 0.0 0.0 0.00 0.00 0.00 89 1019.8
20260502181722 82 0.0 0.0 0.00 0.00 0.00 89 1019.8
20260502181221 84 0.0 0.0 0.00 0.00 0.00 86 1019.9
20260502180722 83 0.0 0.0 0.00 0.00 0.00 87 1020.0
20260502180222 83 0.0 0.0 0.00 0.00 0.00 87 1020.0
20260502170222 83 0.0 0.0 0.00 0.00 0.00 87 1020.6
20260502164222 84 0.0 0.0 0.00 0.00 0.00 87 1020.8
20260502163722 84 0.0 0.0 0.00 0.00 0.00 86 1020.9
20260502163221 84 0.0 0.0 0.00 0.00 0.00 86 1021.0
20260502162722 83 0.0 0.0 0.00 0.00 0.00 87 1021.1
20260502162222 83 0.0 0.0 0.00 0.00 0.00 88 1021.2
20260502161721 83 0.0 0.0 0.00 0.00 0.00 87 1021.1
20260502161222 83 0.0 0.0 0.00 0.00 0.00 87 1021.1
20260502160722 83 0.0 0.0 0.00 0.00 0.00 87 1021.1
20260502160222 84 0.0 0.0 0.00 0.00 0.00 87 1021.2
20260502152222 84 0.0 0.0 0.00 0.00 0.00 86 1021.0
20260502151721 83 0.0 0.0 0.00 0.00 0.00 87 1020.9
20260502151222 84 0.0 0.0 0.00 0.00 0.00 86 1020.8
20260502150722 84 0.0 0.0 0.00 0.00 0.00 85 1020.9
20260502150221 85 0.0 0.0 0.00 0.00 0.00 85 1020.9
20260502130722 85 0.0 0.0 0.00 0.00 0.00 85 1019.3
20260502130221 85 0.0 0.0 0.00 0.00 0.00 84 1019.3
20260502123721 86 0.0 0.0 0.00 0.00 0.00 85 1019.2
20260502123224 86 0.0 0.0 0.00 0.00 0.00 84 1019.1
20260502122721 86 0.0 0.0 0.00 0.00 0.00 85 1018.9
20260502122222 86 0.0 0.0 0.00 0.00 0.00 85 1019.0
20260502121721 86 0.0 0.0 0.00 0.00 0.00 84 1019.0
20260502121222 86 0.0 0.0 0.00 0.00 0.00 84 1019.0
20260502120721 87 0.0 0.0 0.00 0.00 0.00 84 1018.9
20260502120221 87 0.0 0.0 0.00 0.00 0.00 84 1018.8
20260502115721 87 0.0 0.0 0.00 0.00 0.00 84 1018.7
20260502115222 87 0.0 0.0 0.00 0.00 0.00 84 1018.6
20260502114722 87 0.0 0.0 0.00 0.00 0.00 84 1018.5
20260502114221 87 0.0 0.0 0.00 0.00 0.00 84 1018.4
20260502113722 87 0.0 0.0 0.00 0.00 0.00 85 1018.2
20260502113221 87 0.0 0.0 0.00 0.00 0.00 85 1018.0
20260502112721 87 0.0 0.0 0.00 0.00 0.00 85 1018.0
20260502112222 87 0.0 0.0 0.00 0.00 0.00 86 1018.1
20260502111722 87 0.0 0.0 0.00 0.00 0.00 86 1018.1
20260502111222 87 0.0 0.0 0.00 0.00 0.00 86 1018.1
20260502110721 87 0.0 0.0 0.00 0.00 0.00 85 1017.9
20260502110222 87 0.0 0.0 0.00 0.00 0.00 84 1017.8
20260502105722 87 0.0 0.0 0.00 0.00 0.00 84 1017.6
20260502105221 87 0.0 0.0 0.00 0.00 0.00 84 1017.5
20260502104722 87 0.0 0.0 0.00 0.00 0.00 84 1017.5
20260502104222 87 0.0 0.0 0.00 0.00 0.00 84 1017.4
20260502103721 87 0.0 0.0 0.00 0.00 0.00 84 1017.4
20260502103222 87 0.0 0.0 0.00 0.00 0.00 84 1017.2
20260502102722 87 0.0 0.0 0.00 0.00 0.00 84 1017.1
20260502102222 87 0.0 0.0 0.00 0.00 0.00 83 1017.1
20260502101721 87 0.0 0.0 0.00 0.00 0.00 83 1016.9
20260502101222 87 0.0 0.0 0.00 0.00 0.00 84 1016.8
20260502100722 87 0.0 0.0 0.00 0.00 0.00 84 1016.8
20260502100221 87 0.0 0.0 0.00 0.00 0.00 84 1016.7
20260502091221 88 0.0 0.0 0.00 0.00 0.00 83 1016.5
20260502090722 87 0.0 0.0 0.00 0.00 0.00 84 1016.5
20260502090222 88 0.0 0.0 0.00 0.00 0.00 84 1016.6
20260502071222 87 0.0 0.0 0.00 0.00 0.00 84 1018.5
20260502070721 87 0.0 0.0 0.00 0.00 0.00 85 1018.5
20260502070222 87 0.0 0.0 0.00 0.00 0.00 84 1018.6
20260502065721 86 0.0 0.0 0.00 0.00 0.00 85 1018.7
20260502065221 86 0.0 0.0 0.00 0.00 0.00 86 1018.9
20260502064721 86 0.0 0.0 0.00 0.00 0.00 85 1018.8
20260502064222 86 0.0 0.0 0.00 0.00 0.00 85 1018.9
20260502063722 85 0.0 0.0 0.00 0.00 0.00 85 1019.1
20260502063221 85 0.0 0.0 0.00 0.00 0.00 85 1019.1
20260502062722 86 0.0 0.0 0.00 0.00 0.00 86 1019.3
20260502062221 85 0.0 0.0 0.00 0.00 0.00 87 1019.5
20260502061722 86 0.0 0.0 0.00 0.00 0.00 85 1019.5
20260502061221 85 0.0 0.0 0.00 0.00 0.00 86 1019.7
20260502060722 85 0.0 0.0 0.00 0.00 0.00 86 1019.9
20260502060222 86 0.0 0.0 0.00 0.00 0.00 85 1019.9
20260502055721 87 0.0 0.0 0.00 0.00 0.00 85 1020.0
20260502055222 88 0.0 0.0 0.00 0.00 0.00 85 1020.0
20260502054721 90 0.0 0.0 0.00 0.00 0.00 81 1020.0
20260502054222 88 0.0 0.0 0.00 0.00 0.00 84 1020.1
20260502053721 88 0.0 0.0 0.00 0.00 0.00 84 1019.9
20260502053221 89 0.0 0.0 0.00 0.00 0.00 82 1019.9
20260502052722 89 0.0 0.0 0.00 0.00 0.00 83 1020.2
20260502052221 89 0.0 0.0 0.00 0.00 0.00 85 1020.2
20260502051722 88 0.0 0.0 0.00 0.00 0.00 85 1020.3
20260502051221 89 0.0 0.0 0.00 0.00 0.00 84 1020.3
20260502050722 89 0.0 0.0 0.00 0.00 0.00 85 1020.3
20260502050221 88 0.0 0.0 0.00 0.00 0.00 85 1020.3
20260502045722 87 0.0 0.0 0.00 0.00 0.00 88 1020.2
20260502045222 87 0.0 0.0 0.00 0.00 0.00 87 1020.2
20260502044721 87 0.0 0.0 0.00 0.00 0.00 88 1020.3
20260502044221 88 0.0 0.0 0.00 0.00 0.00 87 1020.3
20260502043722 87 0.0 0.0 0.00 0.00 0.00 87 1020.4
20260502043221 87 0.0 0.0 0.00 0.00 0.00 87 1020.6
20260502042721 86 0.0 0.0 0.00 0.00 0.00 87 1020.8
20260502042221 86 0.0 0.0 0.00 0.00 0.00 88 1020.9
20260502041722 85 0.0 0.0 0.00 0.00 0.00 88 1021.0
20260502041222 85 0.0 0.0 0.00 0.00 0.00 88 1021.0
20260502040721 85 0.0 0.0 0.00 0.00 0.00 88 1020.9
20260502040222 84 0.0 0.0 0.00 0.00 0.00 89 1021.0
20260502035721 84 0.0 0.0 0.00 0.00 0.00 88 1021.2
20260502035221 84 0.0 0.0 0.00 0.00 0.00 89 1021.3
20260502034721 82 0.0 0.0 0.00 0.00 0.00 92 1021.4
20260502034222 82 0.0 0.0 0.00 0.00 0.00 94 1021.5
20260502033721 83 0.0 0.0 0.00 0.00 0.00 91 1021.4
20260502033222 84 0.0 0.0 0.00 0.00 0.00 88 1021.5
20260502032722 85 0.0 0.0 0.00 0.00 0.00 87 1021.5
20260502032221 85 0.0 0.0 0.00 0.00 0.00 87 1021.4
20260502031722 85 0.0 0.0 0.00 0.00 0.00 88 1021.3
20260502031221 85 0.0 0.0 0.00 0.00 0.00 87 1021.3
20260502030721 85 0.0 0.0 0.00 0.00 0.00 87 1021.3
20260502030221 85 0.0 0.0 0.00 0.00 0.00 87 1021.3
20260502025721 85 0.0 0.0 0.00 0.00 0.00 87 1021.2
20260502025221 85 0.0 0.0 0.00 0.00 0.00 87 1021.2
20260502024725 85 0.0 0.0 0.00 0.00 0.00 87 1021.2
20260502024221 85 0.0 0.0 0.00 0.00 0.00 87 1021.0
20260502023722 85 0.0 0.0 0.00 0.00 0.00 87 1021.0
20260502023221 85 0.0 0.0 0.00 0.00 0.00 88 1021.1
20260502022722 86 0.0 0.0 0.00 0.00 0.00 87 1021.3
20260502022221 86 0.0 0.0 0.00 0.00 0.00 87 1021.5
20260502021721 86 0.0 0.0 0.00 0.00 0.00 88 1021.3
20260502021221 86 0.0 0.0 0.00 0.00 0.00 87 1021.2
20260502020721 86 0.0 0.0 0.00 0.00 0.00 88 1021.1
20260502020221 86 0.0 0.0 0.00 0.00 0.00 87 1021.1
20260502015721 86 0.0 0.0 0.00 0.00 0.00 88 1021.0
20260502015221 85 0.0 0.0 0.00 0.00 0.00 89 1020.9
20260502014721 85 0.0 0.0 0.00 0.00 0.00 89 1021.0
20260502014222 85 0.0 0.0 0.00 0.00 0.00 89 1021.0
20260502013722 85 0.0 0.0 0.00 0.00 0.00 90 1021.0
20260502013222 85 0.0 0.0 0.00 0.00 0.00 90 1021.0
20260502012722 85 0.0 0.0 0.00 0.00 0.00 90 1020.9
20260502012221 84 0.0 0.0 0.00 0.00 0.00 90 1020.9
20260502011722 84 0.0 0.0 0.00 0.00 0.00 90 1020.7
20260502011221 84 0.0 0.0 0.00 0.00 0.00 90 1020.7
20260502010721 84 0.0 0.0 0.00 0.00 0.00 90 1020.6
20260502010221 84 0.0 0.0 0.00 0.00 0.00 90 1020.5
20260502005721 84 0.0 0.0 0.00 0.00 0.00 90 1020.5
20260502005221 84 0.0 0.0 0.00 0.00 0.00 90 1020.3
20260502004721 84 0.0 0.0 0.00 0.00 0.00 90 1020.2
20260502004221 83 0.0 0.0 0.00 0.00 0.00 90 1020.1
20260502003721 83 0.0 0.0 0.00 0.00 0.00 90 1020.1
20260502003221 83 0.0 0.0 0.00 0.00 0.00 91 1020.0
20260502002721 83 0.0 0.0 0.00 0.00 0.00 90 1020.0
20260502002221 83 0.0 0.0 0.00 0.00 0.00 91 1020.0
20260502001721 83 0.0 0.0 0.00 0.00 0.00 90 1019.9
20260502001221 83 0.0 0.0 0.00 0.00 0.00 91 1019.9
20260502000721 83 0.0 0.0 0.00 0.00 0.00 90 1019.9
20260502000221 83 0.0 0.0 0.00 0.00 0.00 90 1019.8
20260501235721 83 0.0 0.0 0.00 0.00 0.00 90 1019.7
20260501235221 83 0.0 0.0 0.00 0.00 0.00 90 1019.8
20260501234722 83 0.0 0.0 0.00 0.00 0.00 90 1019.6
20260501234221 83 0.0 0.0 0.00 0.00 0.00 90 1019.5
20260501233721 83 0.0 0.0 0.00 0.00 0.00 90 1019.5